Szeged, Hungary

3:11 AM CEST on August 29, 2016 (GMT +0200)
Szeged

Weather History for LHUD - October, 2012

Change the Weather History Date:

Tuesday, October 9, 2012

  Actual Average (LRAR) Record (LRAR)
Temperature  
Mean Temperature 50 °F -  
Max Temperature 63 °F 60 °F 80 °F (2001)
Min Temperature 37 °F 40 °F 33 °F (2002)
Degree Days  
Heating Degree Days 15    
Moisture  
Dew Point 38 °F    
Average Humidity 65    
Maximum Humidity 100    
Minimum Humidity 28    
Precipitation  
Precipitation 0.00 in 0.04 in - ()
Sea Level Pressure  
Sea Level Pressure 29.93 in    
Wind  
Wind Speed 5 mph ()    
Max Wind Speed 13 mph    
Max Gust Speed -    
Visibility 11.3 miles    
Events Fog    
Averages and records for this station are not official NWS values.
T = Trace of Precipitation, MM = Missing Value Source: Averaged Metar Reports

Daily Weather History Graph

Daily Weather History Graph

Search for Another Location

Airport or City:

Trip Planner

Search our weather history database for the weather conditions in past years. The results will help you decide how hot, cold, wet, or windy it might be!

Date:

Astronomy

Oct. 09, 2012 Rise Set
Actual Time 6:48 AM CEST 6:03 PM CEST
Civil Twilight 6:18 AM CEST 6:33 PM CEST
Nautical Twilight 5:44 AM CEST 7:08 PM CEST
Astronomical Twilight 5:09 AM CEST 7:43 PM CEST
Moon No Moon Rise 2:38 PM CEST (10/9)
Length of Visible Light 12h 15m
Length of Day
11h 14m
Last Quarter, 39% of the Moon is Illuminated
Oct 9
Last Quarter
Oct 15
New
Oct 22
First Quarter
Oct 29
Full
Nov 7
Last Quarter

Hourly Weather History & Observations

Time (CEST) Temp. Windchill Dew Point Humidity Pressure Visibility Wind Dir Wind Speed Gust Speed Precip Events Conditions
12:45 AM 41.0 °F 39.0 °F 37.4 °F 87% 30.06 in - South 3.5 mph - N/A   Clear
1:45 AM 39.2 °F - 37.4 °F 93% 30.06 in - Calm Calm - N/A   Clear
2:00 AM 39 °F - 36 °F 87% 30.08 in 19 mi Calm Calm - -   Partly Cloudy
2:45 AM 37.4 °F 34.9 °F 35.6 °F 93% 30.06 in - South 3.5 mph - N/A   Clear
3:45 AM 37.4 °F - 35.6 °F 93% 30.04 in - SSE 2.3 mph - N/A   Clear
4:45 AM 37.4 °F 33.8 °F 35.6 °F 93% 30.01 in - SSE 4.6 mph - N/A   Clear
5:45 AM 37.4 °F 34.9 °F 35.6 °F 93% 30.01 in - SSE 3.5 mph - N/A   Clear
6:15 AM 37.4 °F 33.8 °F 37.4 °F 100% 30.01 in 6.2 mi South 4.6 mph - N/A Fog Shallow Fog
6:45 AM 37.4 °F 34.9 °F 37.4 °F 100% 30.01 in 6.2 mi SE 3.5 mph - N/A Fog Shallow Fog
7:15 AM 37.4 °F 34.9 °F 35.6 °F 93% 30.01 in 6.2 mi SSE 3.5 mph - N/A Fog Shallow Fog
7:45 AM 37.4 °F 33.8 °F 37.4 °F 100% 29.98 in - SE 4.6 mph - N/A   Clear
8:45 AM 44.6 °F 42.2 °F 41.0 °F 87% 29.98 in - South 4.6 mph - N/A   Clear
9:15 AM 46.4 °F 42.4 °F 41.0 °F 81% 29.98 in - SSE 8.1 mph - N/A   Clear
9:45 AM 50.0 °F - 41.0 °F 71% 29.98 in - SSE 8.1 mph - N/A   Clear
10:45 AM 55.4 °F - 42.8 °F 63% 29.98 in - South 10.4 mph - N/A   Clear
11:15 AM 59.0 °F - 41.0 °F 51% 29.95 in - SSE 10.4 mph - N/A   Clear
11:45 AM 60.8 °F - 39.2 °F 45% 29.95 in - South 10.4 mph - N/A   Clear
12:15 PM 59.0 °F - 39.2 °F 48% 29.95 in - SSE 12.7 mph - N/A   Clear
1:15 PM 60.8 °F - 37.4 °F 42% 29.92 in - South 11.5 mph - N/A   Clear
1:45 PM 60.8 °F - 35.6 °F 39% 29.89 in - SSE 12.7 mph - N/A   Clear
2:00 PM 61 °F - 36 °F 28% 29.90 in 31 mi SSE 13.4 mph - -   Partly Cloudy
2:15 PM 62.6 °F - 35.6 °F 37% 29.89 in - South 11.5 mph - N/A   Clear
2:45 PM 62.6 °F - 37.4 °F 39% 29.89 in - South 10.4 mph - N/A   Clear
3:15 PM 62.6 °F - 35.6 °F 37% 29.89 in - SSE 9.2 mph - N/A   Clear
3:45 PM 62.6 °F - 35.6 °F 37% 29.86 in - SSE 8.1 mph - N/A   Clear
4:15 PM 62.6 °F - 35.6 °F 37% 29.86 in - SSE 8.1 mph - N/A   Clear
4:45 PM 62.6 °F - 35.6 °F 37% 29.86 in - South 6.9 mph - N/A   Clear
5:15 PM 60.8 °F - 35.6 °F 39% 29.86 in - South 8.1 mph - N/A   Clear
5:45 PM 59.0 °F - 35.6 °F 42% 29.86 in - SSE 4.6 mph - N/A   Clear
6:15 PM 57.2 °F - 35.6 °F 44% 29.86 in - SSE 5.8 mph - N/A   Clear
6:45 PM 55.4 °F - 41.0 °F 58% 29.86 in - SE 4.6 mph - N/A   Clear
7:15 PM 53.6 °F - 39.2 °F 58% 29.86 in - SE 5.8 mph - N/A   Clear
7:45 PM 51.8 °F - 41.0 °F 67% 29.86 in - ESE 2.3 mph - N/A   Clear
8:00 PM 53 °F - 40 °F 51% 29.86 in 19 mi ESE 2.2 mph - -   Partly Cloudy
8:15 PM 51.8 °F - 41.0 °F 67% 29.86 in - ESE 2.3 mph - N/A   Clear
8:45 PM 51.8 °F - 41.0 °F 67% 29.86 in - ESE 3.5 mph - N/A   Clear
9:15 PM 48.2 °F - 41.0 °F 76% 29.86 in - Calm Calm - N/A   Clear
9:45 PM 50.0 °F - 41.0 °F 71% 29.86 in - SSE 4.6 mph - N/A   Clear
10:45 PM 50.0 °F - 41.0 °F 71% 29.86 in - South 2.3 mph - N/A   Clear
11:45 PM 46.4 °F - 41.0 °F 81% 29.86 in - SSW 2.3 mph - N/A   Clear